QPF
0.02 0.02 0.02 0.03 0.04 0.04 0.04 0.05 0.04 0.04 0.04 0.05 0.06 0.06 0.05 0.04 0.04 0.04 0.04 0.05 0.05 0.04 0.05 0.05 0.08 0.09 0.08 0.08 0.07 0.07 0.07 0.08 0.09 0.09 0.08 0.08 0.07 0.07 0.07 0.08 0.08 0.07 0.05
0.04 0.06 0.07 0.07 0.05 0.05 0.05 0.05 0.05 0.05 0.05 0.07 0.08 0.06 0.05 0.05 0.05 0.05 0.05 0.05 0.05 0.05 0.04 0.05 0.05 0.07 0.08 0.08 0.07 0.07 0.06 0.05 0.07 0.08 0.09 0.08 0.08 0.06 0.07 0.08 0.07 0.07 0.07
0.06 0.08 0.09 0.09 0.06 0.05 0.05 0.05 0.05 0.04 0.04 0.05 0.10 0.09 0.08 0.07 0.06 0.07 0.07 0.07 0.05 0.04 0.04 0.05 0.06 0.06 0.06 0.07 0.08 0.09 0.08 0.07 0.06 0.08 0.09 0.08 0.07 0.07 0.07 0.06 0.06 0.07 0.09
0.06 0.09 0.08 0.07 0.08 0.06 0.05 0.05 0.05 0.05 0.04 0.05 0.07 0.10 0.10 0.08 0.06 0.06 0.07 0.07 0.05 0.04 0.04 0.05 0.07 0.09 0.07 0.08 0.07 0.07 0.08 0.07 0.07 0.08 0.08 0.08 0.08 0.08 0.07 0.06 0.06 0.07 0.08
0.03 0.05 0.07 0.07 0.07 0.08 0.08 0.07 0.04 0.04 0.05 0.05 0.06 0.07 0.07 0.07 0.06 0.06 0.06 0.07 0.07 0.06 0.06 0.07 0.08 0.09 0.09 0.09 0.07 0.07 0.07 0.07 0.06 0.07 0.08 0.08 0.10 0.08 0.07 0.05 0.05 0.05 0.04
0.01 0.03 0.03 0.04 0.05 0.05 0.07 0.11 0.08 0.05 0.04 0.05 0.06 0.07 0.07 0.07 0.06 0.07 0.08 0.06 0.07 0.06 0.06 0.06 0.08 0.09 0.08 0.09 0.08 0.07 0.07 0.07 0.07 0.07 0.07 0.08 0.08 0.07 0.08 0.06 0.05 0.05 0.04
0.01 0.04 0.04 0.04 0.04 0.03 0.05 0.06 0.06 0.06 0.05 0.06 0.09 0.09 0.08 0.07 0.07 0.08 0.09 0.07 0.07 0.07 0.05 0.05 0.06 0.08 0.09 0.09 0.08 0.08 0.08 0.08 0.07 0.06 0.06 0.06 0.06 0.07 0.08 0.08 0.05 0.05 0.05
0.02 0.02 0.03 0.04 0.04 0.03 0.04 0.05 0.04 0.06 0.07 0.06 0.07 0.09 0.08 0.06 0.06 0.08 0.09 0.08 0.07 0.10 0.10 0.06 0.05 0.06 0.07 0.07 0.08 0.08 0.09 0.09 0.09 0.06 0.07 0.07 0.06 0.08 0.08 0.08 0.07 0.06 0.06
0.03 0.02 0.02 0.02 0.03 0.03 0.04 0.06 0.05 0.06 0.06 0.05 0.06 0.07 0.07 0.07 0.06 0.07 0.08 0.07 0.07 0.07 0.09 0.09 0.07 0.06 0.05 0.07 0.09 0.09 0.09 0.08 0.08 0.07 0.07 0.07 0.07 0.08 0.09 0.09 0.09 0.08 0.07
0.04 0.03 0.03 0.02 0.02 0.02 0.02 0.03 0.05 0.06 0.06 0.05 0.05 0.06 0.06 0.06 0.07 0.08 0.07 0.06 0.06 0.05 0.06 0.08 0.09 0.07 0.06 0.06 0.08 0.09 0.08 0.07 0.07 0.06 0.07 0.07 0.08 0.08 0.09 0.11 0.10 0.09 0.07
0.02 0.02 0.02 0.02 0.02 0.01 0.02 0.02 0.03 0.03 0.03 0.04 0.04 0.07 0.06 0.05 0.06 0.06 0.06 0.05 0.04 0.04 0.05 0.06 0.07 0.07 0.07 0.07 0.08 0.07 0.06 0.06 0.06 0.06 0.06 0.06 0.07 0.08 0.09 0.10 0.09 0.09 0.09
0.01 0.01 0.01 0.02 0.02 0.02 0.02 0.02 0.02 0.01 0.01 0.02 0.02 0.03 0.02 0.03 0.03 0.03 0.03 0.03 0.03 0.03 0.04 0.04 0.04 0.05 0.06 0.06 0.06 0.06 0.06 0.06 0.07 0.07 0.07 0.06 0.06 0.06 0.08 0.09 0.09 0.08 0.08
0.01 0.01 0.02 0.02 0.02 0.02 0.02 0.01 0.01 0.01 0.01 0.01 0.02 0.02 0.02 0.02 0.02 0.03 0.03 0.02 0.02 0.03 0.02 0.02 0.03 0.04 0.05 0.05 0.05 0.05 0.05 0.06 0.07 0.07 0.07 0.07 0.06 0.05 0.07 0.09 0.09 0.07 0.07
0.01 0.02 0.03 0.02 0.02 0.01 0.02 0.01 0.01 0.01 0.01 0.01 0.01 0.01 0.01 0.02 0.03 0.03 0.03 0.02 0.02 0.03 0.03 0.03 0.03 0.03 0.03 0.04 0.04 0.04 0.05 0.05 0.05 0.05 0.05 0.05 0.05 0.06 0.07 0.07 0.07 0.05 0.06
0.01 0.01 0.02 0.02 0.01 0.01 0.01 0.02 0.02 0.01 0.01 0.01 0.01 0.01 0.01 0.02 0.02 0.03 0.02 0.02 0.03 0.02 0.03 0.03 0.04 0.03 0.03 0.03 0.03 0.03 0.03 0.03 0.03 0.03 0.03 0.03 0.04 0.04 0.05 0.03 0.04 0.04 0.04
0.01 0.02 0.02 0.02 0.02 0.01 0.01 0.01 0.01 0.01 0.02 0.03 0.03 0.02 0.02 0.02 0.02 0.02 0.02 0.02 0.03 0.04 0.04 0.04 0.03 0.02 0.01 0.02 0.01 0.02 0.03 0.04 0.03 0.03 0.04 0.03 0.04 0.05 0.05 0.03 0.03 0.03 0.02
0.03 0.04 0.03 0.02 0.02 0.02 0.01 0.01 0.02 0.02 0.02 0.03 0.03 0.03 0.03 0.03 0.02 0.02 0.02 0.02 0.03 0.04 0.05 0.04 0.03 0.02 0.02 0.02 0.00 0.01 0.03 0.04 0.03 0.04 0.05 0.04 0.04 0.04 0.04 0.04 0.03 0.02 0.02
0.02 0.03 0.04 0.03 0.03 0.03 0.03 0.02 0.02 0.02 0.02 0.02 0.03 0.03 0.03 0.03 0.02 0.02 0.02 0.02 0.03 0.03 0.04 0.04 0.03 0.03 0.02 0.01 0.01 0.01 0.02 0.04 0.04 0.06 0.06 0.06 0.04 0.04 0.04 0.04 0.03 0.02 0.01
0.01 0.01 0.02 0.02 0.02 0.03 0.03 0.02 0.02 0.01 0.02 0.02 0.02 0.02 0.02 0.03 0.03 0.03 0.03 0.03 0.03 0.04 0.04 0.02 0.03 0.03 0.03 0.02 0.02 0.02 0.03 0.03 0.04 0.07 0.06 0.06 0.05 0.05 0.05 0.04 0.03 0.02 0.02
0.01 0.02 0.01 0.01 0.01 0.02 0.03 0.03 0.02 0.02 0.02 0.02 0.01 0.01 0.02 0.03 0.03 0.04 0.03 0.03 0.03 0.03 0.03 0.02 0.03 0.04 0.05 0.05 0.03 0.02 0.03 0.03 0.04 0.07 0.07 0.06 0.05 0.06 0.07 0.05 0.03 0.02 0.02
0.01 0.02 0.01 0.01 0.02 0.02 0.01 0.02 0.02 0.02 0.03 0.02 0.02 0.02 0.03 0.03 0.03 0.04 0.04 0.03 0.03 0.03 0.03 0.03 0.03 0.03 0.04 0.05 0.04 0.04 0.04 0.05 0.04 0.06 0.08 0.08 0.08 0.07 0.05 0.04 0.03 0.02 0.02
0.01 0.01 0.01 0.01 0.01 0.01 0.01 0.01 0.02 0.02 0.02 0.02 0.02 0.02 0.03 0.03 0.03 0.04 0.04 0.03 0.03 0.03 0.03 0.03 0.02 0.01 0.02 0.04 0.03 0.03 0.03 0.05 0.06 0.06 0.09 0.07 0.07 0.05 0.02 0.01 0.01 0.02 0.03
0.01 0.01 0.01 0.01 0.02 0.02 0.02 0.03 0.02 0.01 0.01 0.02 0.03 0.03 0.04 0.04 0.03 0.04 0.04 0.03 0.04 0.04 0.03 0.02 0.02 0.01 0.02 0.03 0.03 0.02 0.03 0.04 0.06 0.06 0.06 0.04 0.03 0.02 0.01 0.01 0.02 0.02 0.02
0.01 0.01 0.02 0.03 0.03 0.02 0.02 0.03 0.01 0.01 0.02 0.03 0.04 0.04 0.05 0.05 0.04 0.03 0.03 0.04 0.05 0.05 0.04 0.03 0.03 0.02 0.02 0.02 0.03 0.03 0.03 0.03 0.05 0.04 0.04 0.03 0.03 0.02 0.02 0.02 0.02 0.02 0.02
0.02 0.02 0.03 0.02 0.01 0.01 0.01 0.01 0.01 0.02 0.02 0.03 0.04 0.04 0.04 0.04 0.04 0.03 0.04 0.05 0.05 0.06 0.04 0.03 0.03 0.03 0.03 0.03 0.03 0.04 0.04 0.03 0.04 0.04 0.03 0.02 0.02 0.02 0.03 0.03 0.02 0.02 0.02
0.02 0.02 0.02 0.02 0.02 0.01 0.01 0.01 0.01 0.02 0.03 0.02 0.02 0.03 0.03 0.03 0.03 0.04 0.05 0.05 0.04 0.04 0.04 0.03 0.02 0.02 0.02 0.01 0.01 0.01 0.02 0.02 0.01 0.02 0.03 0.03 0.04 0.04 0.05 0.05 0.05 0.05 0.05
MSLP
1013.31 1013.54 1013.78 1013.99 1014.16 1014.30 1014.41 1014.53 1014.65 1014.79 1014.94 1015.09 1015.23 1015.32 1015.36 1015.34 1015.26 1015.14 1015.01 1014.89 1014.78 1014.72 1014.69 1014.69 1014.71 1014.72 1014.72 1014.68 1014.59 1014.46 1014.29 1014.08 1013.86 1013.64 1013.43 1013.24 1013.08 1012.95 1012.84 1012.75 1012.67 1012.60 1012.53
1013.23 1013.48 1013.70 1013.86 1013.98 1014.06 1014.13 1014.22 1014.35 1014.53 1014.75 1014.99 1015.20 1015.36 1015.43 1015.41 1015.29 1015.12 1014.91 1014.72 1014.57 1014.48 1014.47 1014.52 1014.62 1014.73 1014.82 1014.86 1014.85 1014.77 1014.63 1014.44 1014.23 1014.01 1013.81 1013.62 1013.46 1013.32 1013.19 1013.08 1012.95 1012.83 1012.71
1013.11 1013.38 1013.59 1013.72 1013.79 1013.81 1013.84 1013.90 1014.03 1014.24 1014.51 1014.81 1015.08 1015.30 1015.41 1015.40 1015.27 1015.06 1014.82 1014.58 1014.39 1014.30 1014.30 1014.40 1014.56 1014.74 1014.91 1015.03 1015.08 1015.05 1014.94 1014.78 1014.59 1014.39 1014.20 1014.03 1013.88 1013.74 1013.61 1013.48 1013.33 1013.16 1012.99
1012.92 1013.21 1013.43 1013.56 1013.60 1013.59 1013.58 1013.62 1013.74 1013.95 1014.24 1014.58 1014.90 1015.17 1015.32 1015.34 1015.23 1015.03 1014.77 1014.51 1014.32 1014.22 1014.23 1014.34 1014.54 1014.77 1014.99 1015.16 1015.26 1015.27 1015.21 1015.08 1014.92 1014.75 1014.58 1014.43 1014.30 1014.18 1014.06 1013.92 1013.76 1013.57 1013.36
1012.68 1013.01 1013.25 1013.38 1013.43 1013.41 1013.38 1013.39 1013.49 1013.69 1013.98 1014.33 1014.69 1014.99 1015.19 1015.26 1015.19 1015.02 1014.78 1014.54 1014.35 1014.24 1014.25 1014.36 1014.55 1014.79 1015.02 1015.21 1015.34 1015.38 1015.35 1015.27 1015.14 1015.02 1014.89 1014.78 1014.69 1014.60 1014.49 1014.36 1014.20 1014.00 1013.77
1012.41 1012.77 1013.05 1013.22 1013.29 1013.29 1013.26 1013.25 1013.32 1013.49 1013.76 1014.09 1014.45 1014.78 1015.02 1015.14 1015.13 1015.02 1014.83 1014.63 1014.45 1014.34 1014.32 1014.40 1014.56 1014.76 1014.97 1015.15 1015.27 1015.34 1015.34 1015.30 1015.23 1015.15 1015.08 1015.02 1014.97 1014.92 1014.84 1014.73 1014.58 1014.38 1014.15
1012.13 1012.52 1012.85 1013.08 1013.20 1013.23 1013.21 1013.19 1013.23 1013.35 1013.56 1013.86 1014.20 1014.52 1014.79 1014.97 1015.03 1014.99 1014.87 1014.71 1014.56 1014.44 1014.39 1014.42 1014.51 1014.64 1014.79 1014.93 1015.04 1015.12 1015.15 1015.15 1015.14 1015.13 1015.12 1015.12 1015.12 1015.10 1015.06 1014.98 1014.85 1014.67 1014.45
1011.88 1012.30 1012.69 1012.98 1013.16 1013.23 1013.23 1013.19 1013.19 1013.25 1013.39 1013.62 1013.91 1014.21 1014.50 1014.72 1014.85 1014.89 1014.84 1014.73 1014.60 1014.48 1014.39 1014.35 1014.36 1014.41 1014.49 1014.58 1014.66 1014.74 1014.80 1014.86 1014.91 1014.97 1015.02 1015.08 1015.12 1015.15 1015.14 1015.08 1014.97 1014.82 1014.62
1011.67 1012.12 1012.56 1012.91 1013.15 1013.26 1013.28 1013.23 1013.17 1013.16 1013.22 1013.36 1013.58 1013.84 1014.12 1014.37 1014.56 1014.67 1014.69 1014.64 1014.55 1014.42 1014.30 1014.20 1014.13 1014.10 1014.10 1014.14 1014.20 1014.28 1014.38 1014.48 1014.59 1014.71 1014.83 1014.93 1015.01 1015.07 1015.08 1015.05 1014.97 1014.85 1014.68
1011.53 1012.00 1012.47 1012.87 1013.16 1013.31 1013.33 1013.26 1013.16 1013.06 1013.02 1013.07 1013.21 1013.42 1013.67 1013.93 1014.16 1014.33 1014.42 1014.43 1014.37 1014.25 1014.11 1013.96 1013.84 1013.75 1013.70 1013.70 1013.75 1013.84 1013.97 1014.12 1014.28 1014.45 1014.61 1014.75 1014.85 1014.93 1014.95 1014.94 1014.88 1014.79 1014.66
1011.43 1011.92 1012.41 1012.85 1013.16 1013.33 1013.36 1013.27 1013.12 1012.95 1012.82 1012.78 1012.82 1012.97 1013.18 1013.43 1013.68 1013.89 1014.04 1014.10 1014.09 1014.00 1013.86 1013.71 1013.55 1013.43 1013.36 1013.35 1013.40 1013.51 1013.67 1013.86 1014.06 1014.26 1014.44 1014.60 1014.71 1014.78 1014.81 1014.80 1014.76 1014.69 1014.61
1011.39 1011.88 1012.38 1012.82 1013.15 1013.33 1013.35 1013.25 1013.05 1012.82 1012.62 1012.49 1012.46 1012.53 1012.70 1012.93 1013.18 1013.42 1013.61 1013.72 1013.75 1013.71 1013.60 1013.46 1013.32 1013.21 1013.14 1013.14 1013.21 1013.35 1013.53 1013.75 1013.97 1014.19 1014.37 1014.52 1014.61 1014.67 1014.69 1014.68 1014.65 1014.61 1014.56
1011.38 1011.86 1012.34 1012.77 1013.09 1013.27 1013.29 1013.17 1012.96 1012.70 1012.45 1012.26 1012.16 1012.17 1012.28 1012.48 1012.72 1012.96 1013.18 1013.33 1013.41 1013.41 1013.36 1013.26 1013.16 1013.09 1013.05 1013.08 1013.18 1013.34 1013.55 1013.78 1014.01 1014.22 1014.39 1014.51 1014.58 1014.61 1014.61 1014.60 1014.58 1014.57 1014.56
1011.37 1011.83 1012.28 1012.69 1012.99 1013.15 1013.18 1013.06 1012.85 1012.58 1012.31 1012.09 1011.95 1011.91 1011.97 1012.12 1012.33 1012.57 1012.78 1012.96 1013.08 1013.13 1013.13 1013.10 1013.06 1013.03 1013.05 1013.12 1013.25 1013.43 1013.65 1013.88 1014.10 1014.29 1014.43 1014.52 1014.57 1014.58 1014.57 1014.56 1014.55 1014.57 1014.60
1011.35 1011.77 1012.19 1012.55 1012.82 1012.98 1013.00 1012.91 1012.72 1012.47 1012.21 1011.99 1011.83 1011.75 1011.77 1011.88 1012.04 1012.24 1012.45 1012.62 1012.76 1012.85 1012.90 1012.92 1012.94 1012.97 1013.04 1013.15 1013.31 1013.51 1013.73 1013.94 1014.14 1014.31 1014.42 1014.50 1014.53 1014.53 1014.52 1014.52 1014.54 1014.59 1014.66
1011.30 1011.67 1012.04 1012.35 1012.59 1012.73 1012.77 1012.71 1012.56 1012.36 1012.14 1011.94 1011.78 1011.69 1011.67 1011.72 1011.83 1011.98 1012.15 1012.30 1012.43 1012.54 1012.62 1012.69 1012.75 1012.84 1012.94 1013.09 1013.26 1013.46 1013.67 1013.87 1014.05 1014.20 1014.30 1014.37 1014.40 1014.42 1014.44 1014.47 1014.53 1014.61 1014.71
1011.20 1011.53 1011.83 1012.10 1012.30 1012.43 1012.48 1012.46 1012.37 1012.23 1012.06 1011.90 1011.76 1011.66 1011.62 1011.62 1011.67 1011.76 1011.86 1011.97 1012.07 1012.17 1012.26 1012.35 1012.45 1012.56 1012.69 1012.85 1013.03 1013.23 1013.42 1013.61 1013.78 1013.92 1014.03 1014.11 1014.17 1014.23 1014.29 1014.37 1014.47 1014.59 1014.73
1011.05 1011.34 1011.59 1011.80 1011.97 1012.09 1012.15 1012.16 1012.13 1012.05 1011.95 1011.84 1011.73 1011.64 1011.57 1011.53 1011.52 1011.53 1011.56 1011.61 1011.67 1011.74 1011.81 1011.90 1012.01 1012.13 1012.27 1012.43 1012.61 1012.80 1012.98 1013.16 1013.33 1013.48 1013.61 1013.73 1013.84 1013.96 1014.08 1014.22 1014.37 1014.53 1014.69
1010.89 1011.14 1011.34 1011.50 1011.63 1011.73 1011.81 1011.85 1011.86 1011.85 1011.81 1011.75 1011.67 1011.58 1011.50 1011.41 1011.34 1011.29 1011.25 1011.23 1011.23 1011.26 1011.30 1011.38 1011.47 1011.59 1011.74 1011.89 1012.06 1012.24 1012.42 1012.60 1012.77 1012.94 1013.11 1013.28 1013.45 1013.64 1013.83 1014.03 1014.22 1014.41 1014.58
1010.72 1010.94 1011.11 1011.23 1011.33 1011.41 1011.49 1011.55 1011.60 1011.63 1011.63 1011.61 1011.56 1011.49 1011.39 1011.27 1011.15 1011.03 1010.93 1010.85 1010.79 1010.77 1010.79 1010.84 1010.93 1011.04 1011.17 1011.32 1011.49 1011.66 1011.84 1012.02 1012.21 1012.40 1012.61 1012.83 1013.06 1013.31 1013.55 1013.80 1014.03 1014.23 1014.40
1010.56 1010.78 1010.92 1011.02 1011.10 1011.17 1011.23 1011.30 1011.37 1011.43 1011.46 1011.47 1011.44 1011.37 1011.26 1011.12 1010.96 1010.79 1010.63 1010.50 1010.40 1010.35 1010.33 1010.37 1010.44 1010.55 1010.68 1010.83 1010.99 1011.15 1011.33 1011.52 1011.72 1011.93 1012.17 1012.43 1012.70 1012.98 1013.26 1013.53 1013.77 1013.97 1014.12
1010.41 1010.63 1010.78 1010.88 1010.95 1011.01 1011.07 1011.13 1011.21 1011.28 1011.33 1011.35 1011.33 1011.26 1011.14 1010.98 1010.79 1010.59 1010.39 1010.22 1010.09 1010.01 1009.98 1010.00 1010.07 1010.17 1010.30 1010.45 1010.62 1010.78 1010.96 1011.15 1011.35 1011.57 1011.81 1012.08 1012.36 1012.65 1012.93 1013.20 1013.42 1013.60 1013.73
1010.22 1010.49 1010.66 1010.78 1010.86 1010.92 1010.98 1011.05 1011.13 1011.20 1011.25 1011.27 1011.25 1011.17 1011.04 1010.86 1010.65 1010.43 1010.21 1010.02 1009.86 1009.77 1009.73 1009.75 1009.81 1009.92 1010.06 1010.22 1010.38 1010.54 1010.72 1010.89 1011.08 1011.29 1011.51 1011.75 1012.01 1012.27 1012.52 1012.75 1012.95 1013.10 1013.19
1009.96 1010.28 1010.51 1010.67 1010.79 1010.87 1010.95 1011.02 1011.10 1011.16 1011.21 1011.22 1011.19 1011.11 1010.96 1010.78 1010.55 1010.31 1010.07 1009.87 1009.70 1009.60 1009.55 1009.57 1009.64 1009.76 1009.90 1010.05 1010.22 1010.38 1010.53 1010.69 1010.85 1011.01 1011.19 1011.38 1011.58 1011.79 1011.98 1012.16 1012.31 1012.42 1012.49
1009.56 1009.95 1010.26 1010.49 1010.65 1010.78 1010.88 1010.97 1011.05 1011.12 1011.16 1011.17 1011.12 1011.03 1010.88 1010.68 1010.45 1010.20 1009.95 1009.73 1009.56 1009.45 1009.39 1009.41 1009.48 1009.59 1009.73 1009.88 1010.04 1010.18 1010.32 1010.44 1010.55 1010.66 1010.77 1010.89 1011.02 1011.15 1011.28 1011.40 1011.50 1011.58 1011.63
1008.98 1009.46 1009.84 1010.14 1010.38 1010.56 1010.70 1010.82 1010.91 1010.98 1011.02 1011.03 1010.98 1010.88 1010.73 1010.53 1010.29 1010.04 1009.79 1009.56 1009.38 1009.25 1009.19 1009.19 1009.25 1009.34 1009.47 1009.61 1009.74 1009.87 1009.97 1010.05 1010.11 1010.16 1010.20 1010.24 1010.29 1010.34 1010.40 1010.46 1010.52 1010.58 1010.64
Thickness
5762 5759 5754 5750 5744 5739 5736 5732 5728 5726 5724 5720 5716 5713 5711 5710 5710 5709 5707 5704 5702 5699 5697 5696 5694 5692 5691 5691 5692 5691 5691 5691 5691 5688 5688 5691 5694 5694 5694 5693 5692 5691 5692
5755 5750 5748 5744 5739 5735 5731 5727 5723 5721 5718 5715 5713 5710 5707 5706 5706 5705 5702 5700 5698 5696 5695 5692 5690 5689 5688 5687 5687 5687 5685 5686 5687 5683 5680 5679 5682 5685 5690 5688 5687 5686 5687
5750 5745 5741 5737 5734 5730 5727 5724 5719 5717 5714 5712 5709 5706 5703 5701 5700 5699 5697 5697 5695 5694 5692 5690 5688 5686 5685 5683 5684 5683 5682 5680 5682 5682 5677 5672 5670 5674 5680 5682 5682 5682 5681
5750 5744 5738 5733 5730 5728 5725 5721 5716 5713 5711 5708 5704 5700 5696 5694 5694 5694 5693 5693 5693 5692 5690 5688 5686 5685 5683 5682 5682 5682 5680 5678 5676 5677 5677 5675 5673 5667 5667 5673 5676 5677 5676
5749 5742 5737 5732 5729 5727 5722 5717 5712 5709 5707 5705 5702 5698 5694 5693 5693 5692 5691 5690 5690 5690 5689 5687 5685 5683 5681 5680 5679 5678 5677 5676 5674 5672 5671 5671 5670 5669 5664 5663 5667 5669 5671
5747 5741 5737 5732 5727 5723 5719 5712 5708 5705 5703 5701 5698 5695 5692 5690 5689 5687 5687 5687 5687 5687 5687 5686 5683 5681 5679 5678 5677 5676 5674 5673 5671 5670 5668 5666 5665 5664 5662 5660 5660 5661 5664
5744 5737 5731 5726 5722 5717 5714 5709 5705 5702 5700 5697 5695 5693 5691 5689 5686 5685 5684 5683 5683 5683 5683 5684 5681 5679 5677 5676 5675 5673 5672 5670 5668 5667 5666 5665 5665 5664 5662 5658 5657 5657 5659
5740 5734 5729 5723 5717 5713 5710 5706 5702 5698 5696 5694 5692 5691 5689 5687 5685 5684 5683 5682 5682 5682 5681 5680 5678 5677 5675 5674 5672 5670 5670 5668 5666 5665 5664 5663 5662 5662 5660 5657 5653 5650 5651
5735 5731 5726 5721 5715 5710 5706 5703 5698 5695 5693 5692 5689 5687 5685 5684 5683 5682 5681 5680 5680 5680 5679 5677 5675 5674 5672 5670 5668 5666 5666 5665 5663 5661 5661 5659 5659 5658 5657 5655 5652 5645 5641
5731 5727 5723 5717 5712 5707 5703 5700 5696 5693 5691 5689 5687 5685 5683 5682 5682 5680 5679 5678 5678 5677 5676 5674 5672 5670 5669 5667 5665 5663 5662 5661 5660 5658 5657 5655 5654 5653 5652 5650 5648 5646 5641
5728 5723 5719 5715 5711 5706 5701 5697 5693 5690 5688 5686 5685 5683 5681 5680 5679 5678 5677 5677 5676 5674 5673 5671 5669 5667 5665 5663 5660 5659 5659 5657 5656 5655 5654 5651 5650 5648 5647 5645 5643 5641 5638
5727 5722 5716 5711 5707 5703 5699 5695 5692 5689 5687 5685 5683 5681 5680 5678 5677 5676 5675 5675 5673 5672 5670 5669 5666 5664 5662 5660 5657 5655 5655 5653 5652 5651 5649 5647 5647 5644 5642 5640 5638 5636 5634
5723 5718 5712 5707 5703 5699 5696 5693 5691 5688 5686 5684 5681 5678 5677 5676 5675 5674 5673 5672 5670 5669 5668 5666 5664 5661 5659 5657 5654 5652 5651 5650 5649 5647 5645 5643 5642 5639 5637 5635 5633 5631 5630
5718 5713 5707 5703 5699 5696 5693 5691 5689 5687 5685 5682 5679 5676 5674 5674 5673 5671 5670 5669 5667 5666 5664 5663 5661 5659 5657 5655 5652 5650 5648 5647 5645 5644 5642 5640 5638 5635 5633 5631 5628 5626 5623
5714 5709 5703 5699 5696 5693 5690 5689 5687 5685 5682 5679 5676 5674 5673 5672 5671 5669 5668 5666 5665 5664 5662 5660 5658 5656 5654 5652 5649 5647 5646 5643 5641 5640 5639 5637 5635 5632 5629 5627 5624 5621 5618
5709 5705 5701 5696 5692 5689 5687 5685 5683 5682 5680 5676 5674 5674 5672 5670 5668 5667 5665 5663 5661 5660 5658 5656 5654 5652 5651 5648 5645 5643 5642 5640 5638 5636 5634 5633 5630 5628 5625 5623 5620 5617 5613
5705 5701 5697 5693 5690 5688 5685 5682 5681 5679 5677 5675 5673 5672 5670 5668 5666 5665 5663 5660 5658 5657 5655 5653 5651 5648 5646 5644 5642 5639 5638 5637 5635 5633 5631 5629 5628 5624 5621 5618 5616 5613 5610
5703 5699 5695 5692 5690 5687 5684 5682 5680 5677 5675 5673 5671 5670 5668 5666 5664 5662 5659 5657 5656 5654 5651 5650 5648 5646 5644 5641 5639 5637 5635 5634 5633 5631 5629 5625 5621 5620 5616 5614 5611 5608 5606
5701 5697 5694 5691 5688 5685 5682 5679 5677 5675 5673 5671 5669 5668 5666 5664 5661 5659 5657 5655 5653 5651 5650 5648 5647 5644 5641 5638 5636 5633 5632 5631 5630 5628 5626 5622 5619 5615 5612 5609 5605 5603 5601
5699 5695 5692 5689 5684 5681 5679 5675 5672 5670 5669 5668 5666 5665 5664 5661 5659 5657 5655 5653 5651 5649 5648 5647 5645 5642 5639 5635 5632 5629 5629 5628 5626 5625 5622 5619 5616 5611 5607 5604 5600 5597 5595
5697 5693 5689 5684 5681 5679 5675 5670 5668 5666 5666 5665 5664 5662 5661 5659 5658 5656 5653 5651 5649 5647 5645 5644 5643 5640 5637 5633 5630 5626 5625 5624 5623 5621 5619 5617 5613 5608 5603 5600 5597 5594 5591
5692 5689 5685 5680 5678 5676 5671 5667 5664 5665 5664 5662 5660 5658 5658 5657 5656 5652 5650 5648 5646 5644 5642 5641 5639 5638 5635 5632 5628 5625 5622 5620 5618 5617 5616 5613 5609 5605 5600 5597 5594 5591 5588
5686 5684 5680 5676 5674 5671 5668 5663 5662 5661 5659 5657 5655 5654 5654 5653 5651 5649 5646 5644 5643 5641 5640 5639 5636 5634 5633 5629 5626 5622 5620 5617 5614 5613 5611 5608 5604 5601 5598 5595 5592 5588 5584
5680 5678 5674 5670 5667 5666 5665 5662 5660 5658 5655 5652 5651 5650 5649 5648 5647 5645 5644 5642 5640 5638 5637 5635 5633 5632 5629 5626 5623 5620 5616 5613 5610 5608 5606 5604 5602 5598 5596 5593 5590 5587 5583
5673 5671 5667 5664 5663 5662 5661 5660 5658 5655 5651 5648 5647 5646 5646 5645 5643 5642 5640 5639 5637 5636 5633 5632 5630 5626 5624 5619 5617 5614 5613 5611 5608 5604 5603 5602 5601 5598 5595 5592 5590 5587 5582
5666 5664 5662 5660 5659 5658 5656 5656 5654 5652 5648 5645 5644 5643 5643 5642 5641 5638 5636 5634 5632 5631 5629 5627 5624 5622 5618 5615 5613 5611 5609 5606 5603 5601 5601 5600 5598 5595 5593 5590 5587 5584 5581